Вернуться в каталог

SHIKONGXING 01

АктивенНаукаVLEO
NORAD 65712·PAYLOAD·🇨🇳 China

Запущен Sep 24, 2025 с Yellow Sea Launch Area

Loading…

Ближайшие Пролёты (ближайшие 24 часа)

TLE

СвежийSource: Space-Track

Эпоха: Sep 14, 2026, 09:54 UTC

1 65712U 25214A   26257.41316252  .00001331  00000-0  14950-3 0  9991
2 65712  49.9858 234.3158 0013218 239.2159 120.7483 14.93151764 53035

Отслеживайте SHIKONGXING 01 в реальном времени с AllMySat

Download on the App Store